Flag for Germany Weather past 2 weeks in Westerstede, Lower Saxony, Germany

Now
43 °F

Sprinkles. Scattered clouds.


Feels Like: 33 °F
Forecast: 38 / 44 °F
Wind: 25 mph from Northwest

Location: Wittmundhaven

Current Time: Apr 1, 2015 at 11:05:23 AM

Latest Report: Apr 1, 2015 at 10:20 AM


Visibility: N/A

Pressure: 29.80 "Hg

Humidity: 76%

Dew point: 36 °F

Location of WesterstedeLocation

Historic Weather in Westerstede — Graph

°F

Westerstede temperature yesterday

Maximum temperature yesterday: 46 °F (at 6:58 AM)
Minimum temperature yesterday: 37 °F (at 2:20 AM)
Average temperature yesterday: 43 °F

Past Weeks' High & Low Weather Summary

 TemperatureHumidityPressure
High57 °F (Mar 17, 3:20 PM)100% (Mar 18, 5:20 AM)30.42 "Hg (Mar 18, 5:20 AM)
Low30 °F (Mar 23, 4:20 AM)31% (Mar 19, 3:20 PM)28.97 "Hg (Mar 29, 7:20 PM)
Average42 °F81%29.87 "Hg
* Reported Mar 17 8:20 AM — Apr 1 9:20 AM, Westerstede, Weather by CustomWeather, © 2015

Note: Actual official high and low records may vary slightly from our data, if they occured in-between our weather recording intervals... More about our weather records

Advertising

Westerstede weather history for previous 24 hours

 ConditionsComfort  
Time TempWeatherWind HumidityBarometerVisibility
9:20 AM
Wed, Apr 1
41 °FScattered clouds.20 mph70%29.77 "HgN/A
8:50 AM41 °FSnow flurries. Scattered clouds.25 mph76%29.77 "HgN/A
8:20 AM41 °FScattered clouds.26 mph76%29.74 "HgN/A
7:20 AM39 °FPassing clouds.16 mph81%29.71 "HgN/A
6:20 AM39 °FPassing clouds.16 mph81%29.68 "HgN/A
5:20 AM39 °FSprinkles. Passing clouds.18 mph81%29.65 "HgN/A
4:20 AM37 °FPassing clouds.21 mph87%29.65 "HgN/A
3:20 AM39 °FPassing clouds.18 mph75%29.62 "HgN/A
2:20 AM37 °FPassing clouds.13 mph87%29.59 "HgN/A
1:20 AM37 °FPassing clouds.18 mph87%29.59 "HgN/A
12:54 AM37 °FSprinkles. Partly cloudy.31 mph87%29.59 "HgN/A
12:20 AM39 °FThunderstorms. Passing clouds.16 mph81%29.56 "HgN/A
11:20 PM
Tue, Mar 31
39 °FSprinkles. Passing clouds.24 mph75%29.56 "HgN/A
10:20 PM39 °FSprinkles. Partly cloudy.23 mph81%29.53 "HgN/A
9:20 PM37 °FSprinkles. Partly cloudy.25 mph93%29.53 "HgN/A
8:20 PM43 °FScattered clouds.29 mph71%29.50 "HgN/A
7:56 PM43 °FScattered clouds.31 mph71%29.50 "HgN/A
7:20 PM45 °FScattered clouds.29 mph66%29.47 "HgN/A
6:20 PM45 °FScattered clouds.35 mph66%29.45 "HgN/A
5:20 PM45 °FScattered clouds.38 mph66%29.42 "HgN/A
4:20 PM43 °FSprinkles. Partly sunny.41 mph76%29.36 "HgN/A
3:20 PM45 °FPartly sunny.43 mph76%29.27 "HgN/A
2:20 PM45 °FDrizzle. Partly sunny.44 mph76%29.18 "Hg4 mi
1:20 PM45 °FPartly sunny.38 mph76%29.12 "Hg5 mi
12:57 PM43 °FDrizzle. Partly sunny.37 mph93%29.12 "Hg4 mi
12:47 PM43 °FDrizzle. Fog.39 mph87%29.12 "Hg1 mi
12:20 PM45 °FDrizzle. Partly sunny.41 mph81%29.09 "Hg4 mi
11:54 AM43 °FDrizzle. Partly sunny.41 mph87%29.06 "Hg4 mi
11:20 AM45 °FPartly sunny.38 mph81%29.06 "HgN/A
11:00 AM45 °FDrizzle. Partly sunny.39 mph87%29.03 "Hg4 mi
Weather by CustomWeather, © 2015

See weather overviewHow to use our weather pages